Year,Month,Day,Hour,Minute,Value (Times are PST for insolation in W/m^2)
2008,12,19,00,00,0.00
2008,12,19,00,01,0.00
2008,12,19,00,02,0.00
2008,12,19,00,03,0.00
2008,12,19,00,04,0.00
2008,12,19,00,05,0.00
2008,12,19,00,06,0.00
2008,12,19,00,07,0.00
2008,12,19,00,08,0.00
2008,12,19,00,09,0.00
2008,12,19,00,10,0.00
2008,12,19,00,11,0.00
2008,12,19,00,12,0.00
2008,12,19,00,13,0.00
2008,12,19,00,14,0.00
2008,12,19,00,15,0.00
2008,12,19,00,16,0.00
2008,12,19,00,17,0.00
2008,12,19,00,18,0.00
2008,12,19,00,19,0.00
2008,12,19,00,20,0.00
2008,12,19,00,21,0.00
2008,12,19,00,22,0.00
2008,12,19,00,23,0.00
2008,12,19,00,24,0.00
2008,12,19,00,25,0.00
2008,12,19,00,26,0.00
2008,12,19,00,27,0.00
2008,12,19,00,28,0.00
2008,12,19,00,29,0.00
2008,12,19,00,30,0.00
2008,12,19,00,31,0.00
2008,12,19,00,32,0.00
2008,12,19,00,33,0.00
2008,12,19,00,34,0.00
2008,12,19,00,35,0.00
2008,12,19,00,36,0.00
2008,12,19,00,37,0.00
2008,12,19,00,38,0.00
2008,12,19,00,39,0.00
2008,12,19,00,40,0.00
2008,12,19,00,41,0.00
2008,12,19,00,42,0.00
2008,12,19,00,43,0.00
2008,12,19,00,44,0.00
2008,12,19,00,45,0.00
2008,12,19,00,46,0.00
2008,12,19,00,47,0.00
2008,12,19,00,48,0.00
2008,12,19,00,49,0.00
2008,12,19,00,50,0.00
2008,12,19,00,51,0.00
2008,12,19,00,52,0.00
2008,12,19,00,53,0.00
2008,12,19,00,54,0.00
2008,12,19,00,55,0.00
2008,12,19,00,56,0.00
2008,12,19,00,57,0.00
2008,12,19,00,58,0.00
2008,12,19,00,59,0.00
2008,12,19,01,00,0.00
2008,12,19,01,01,0.00
2008,12,19,01,02,0.00
2008,12,19,01,03,0.00
2008,12,19,01,04,0.00
2008,12,19,01,05,0.00
2008,12,19,01,06,0.00
2008,12,19,01,07,0.00
2008,12,19,01,08,0.00
2008,12,19,01,09,0.00
2008,12,19,01,10,0.00
2008,12,19,01,11,0.00
2008,12,19,01,12,0.00
2008,12,19,01,13,0.00
2008,12,19,01,14,0.00
2008,12,19,01,15,0.00
2008,12,19,01,16,0.00
2008,12,19,01,17,0.00
2008,12,19,01,18,0.00
2008,12,19,01,19,0.00
2008,12,19,01,20,0.00
2008,12,19,01,21,0.00
2008,12,19,01,22,0.00
2008,12,19,01,23,0.00
2008,12,19,01,24,0.00
2008,12,19,01,25,0.00
2008,12,19,01,26,0.00
2008,12,19,01,27,0.00
2008,12,19,01,28,0.00
2008,12,19,01,29,0.00
2008,12,19,01,30,0.00
2008,12,19,01,31,0.00
2008,12,19,01,32,0.00
2008,12,19,01,33,0.00
2008,12,19,01,34,0.00
2008,12,19,01,35,0.00
2008,12,19,01,36,0.00
2008,12,19,01,37,0.00
2008,12,19,01,38,0.00
2008,12,19,01,39,0.00
2008,12,19,01,40,0.00
2008,12,19,01,41,0.00
2008,12,19,01,42,0.00
2008,12,19,01,43,0.00
2008,12,19,01,44,0.00
2008,12,19,01,45,0.00
2008,12,19,01,46,0.00
2008,12,19,01,47,0.00
2008,12,19,01,48,0.00
2008,12,19,01,49,0.00
2008,12,19,01,50,0.00
2008,12,19,01,51,0.00
2008,12,19,01,52,0.00
2008,12,19,01,53,0.00
2008,12,19,01,54,0.00
2008,12,19,01,55,0.00
2008,12,19,01,56,0.00
2008,12,19,01,57,0.00
2008,12,19,01,58,0.00
2008,12,19,01,59,0.00
2008,12,19,02,00,0.00
2008,12,19,02,01,0.00
2008,12,19,02,02,0.00
2008,12,19,02,03,0.00
2008,12,19,02,04,0.00
2008,12,19,02,05,0.00
2008,12,19,02,06,0.00
2008,12,19,02,07,0.00
2008,12,19,02,08,0.00
2008,12,19,02,09,0.00
2008,12,19,02,10,0.00
2008,12,19,02,11,0.00
2008,12,19,02,12,0.00
2008,12,19,02,13,0.00
2008,12,19,02,14,0.00
2008,12,19,02,15,0.00
2008,12,19,02,16,0.00
2008,12,19,02,17,0.00
2008,12,19,02,18,0.00
2008,12,19,02,19,0.00
2008,12,19,02,20,0.00
2008,12,19,02,21,0.00
2008,12,19,02,22,0.00
2008,12,19,02,23,0.00
2008,12,19,02,24,0.00
2008,12,19,02,25,0.00
2008,12,19,02,26,0.00
2008,12,19,02,27,0.00
2008,12,19,02,28,0.00
2008,12,19,02,29,0.00
2008,12,19,02,30,0.00
2008,12,19,02,31,0.00
2008,12,19,02,32,0.00
2008,12,19,02,33,0.00
2008,12,19,02,34,0.00
2008,12,19,02,35,0.00
2008,12,19,02,36,0.00
2008,12,19,02,37,0.00
2008,12,19,02,38,0.00
2008,12,19,02,39,0.00
2008,12,19,02,40,0.00
2008,12,19,02,41,0.00
2008,12,19,02,42,0.00
2008,12,19,02,43,0.00
2008,12,19,02,44,0.00
2008,12,19,02,45,0.00
2008,12,19,02,46,0.00
2008,12,19,02,47,0.00
2008,12,19,02,48,0.00
2008,12,19,02,49,0.00
2008,12,19,02,50,0.00
2008,12,19,02,51,0.00
2008,12,19,02,52,0.00
2008,12,19,02,53,0.00
2008,12,19,02,54,0.00
2008,12,19,02,55,0.00
2008,12,19,02,56,0.00
2008,12,19,02,57,0.00
2008,12,19,02,58,0.00
2008,12,19,02,59,0.00
2008,12,19,03,00,0.00
2008,12,19,03,01,0.00
2008,12,19,03,02,0.00
2008,12,19,03,03,0.00
2008,12,19,03,04,0.00
2008,12,19,03,05,0.00
2008,12,19,03,06,0.00
2008,12,19,03,07,0.00
2008,12,19,03,08,0.00
2008,12,19,03,09,0.00
2008,12,19,03,10,0.00
2008,12,19,03,11,0.00
2008,12,19,03,12,0.00
2008,12,19,03,13,0.00
2008,12,19,03,14,0.00
2008,12,19,03,15,0.00
2008,12,19,03,16,0.00
2008,12,19,03,17,0.00
2008,12,19,03,18,0.00
2008,12,19,03,19,0.00
2008,12,19,03,20,0.00
2008,12,19,03,21,0.00
2008,12,19,03,22,0.00
2008,12,19,03,23,0.00
2008,12,19,03,24,0.00
2008,12,19,03,25,0.00
2008,12,19,03,26,0.00
2008,12,19,03,27,0.00
2008,12,19,03,28,0.00
2008,12,19,03,29,0.00
2008,12,19,03,30,0.00
2008,12,19,03,31,0.00
2008,12,19,03,32,0.00
2008,12,19,03,33,0.00
2008,12,19,03,34,0.00
2008,12,19,03,35,0.00
2008,12,19,03,36,0.00
2008,12,19,03,37,0.00
2008,12,19,03,38,0.00
2008,12,19,03,39,0.00
2008,12,19,03,40,0.00
2008,12,19,03,41,0.00
2008,12,19,03,42,0.00
2008,12,19,03,43,0.00
2008,12,19,03,44,0.00
2008,12,19,03,45,0.00
2008,12,19,03,46,0.00
2008,12,19,03,47,0.00
2008,12,19,03,48,0.00
2008,12,19,03,49,0.00
2008,12,19,03,50,0.00
2008,12,19,03,51,0.00
2008,12,19,03,52,0.00
2008,12,19,03,53,0.00
2008,12,19,03,54,0.00
2008,12,19,03,55,0.00
2008,12,19,03,56,0.00
2008,12,19,03,57,0.00
2008,12,19,03,58,0.00
2008,12,19,03,59,0.00
2008,12,19,04,00,0.00
2008,12,19,04,01,0.00
2008,12,19,04,02,0.00
2008,12,19,04,03,0.00
2008,12,19,04,04,0.00
2008,12,19,04,05,0.00
2008,12,19,04,06,0.00
2008,12,19,04,07,0.00
2008,12,19,04,08,0.00
2008,12,19,04,09,0.00
2008,12,19,04,10,0.00
2008,12,19,04,11,0.00
2008,12,19,04,12,0.00
2008,12,19,04,13,0.00
2008,12,19,04,14,0.00
2008,12,19,04,15,0.00
2008,12,19,04,16,0.00
2008,12,19,04,17,0.00
2008,12,19,04,18,0.00
2008,12,19,04,19,0.00
2008,12,19,04,20,0.00
2008,12,19,04,21,0.00
2008,12,19,04,22,0.00
2008,12,19,04,23,0.00
2008,12,19,04,24,0.00
2008,12,19,04,25,0.00
2008,12,19,04,26,0.00
2008,12,19,04,27,0.00
2008,12,19,04,28,0.00
2008,12,19,04,29,0.00
2008,12,19,04,30,0.00
2008,12,19,04,31,0.00
2008,12,19,04,32,0.00
2008,12,19,04,33,0.00
2008,12,19,04,34,0.00
2008,12,19,04,35,0.00
2008,12,19,04,36,0.00
2008,12,19,04,37,0.00
2008,12,19,04,38,0.00
2008,12,19,04,39,0.00
2008,12,19,04,40,0.00
2008,12,19,04,41,0.00
2008,12,19,04,42,0.00
2008,12,19,04,43,0.00
2008,12,19,04,44,0.00
2008,12,19,04,45,0.00
2008,12,19,04,46,0.00
2008,12,19,04,47,0.00
2008,12,19,04,48,0.00
2008,12,19,04,49,0.00
2008,12,19,04,50,0.00
2008,12,19,04,51,0.00
2008,12,19,04,52,0.00
2008,12,19,04,53,0.00
2008,12,19,04,54,0.00
2008,12,19,04,55,0.00
2008,12,19,04,56,0.00
2008,12,19,04,57,0.00
2008,12,19,04,58,0.00
2008,12,19,04,59,0.00
2008,12,19,05,00,0.00
2008,12,19,05,01,0.00
2008,12,19,05,02,0.00
2008,12,19,05,03,0.00
2008,12,19,05,04,0.00
2008,12,19,05,05,0.00
2008,12,19,05,06,0.00
2008,12,19,05,07,0.00
2008,12,19,05,08,0.00
2008,12,19,05,09,0.00
2008,12,19,05,10,0.00
2008,12,19,05,11,0.00
2008,12,19,05,12,0.00
2008,12,19,05,13,0.00
2008,12,19,05,14,0.00
2008,12,19,05,15,0.00
2008,12,19,05,16,0.00
2008,12,19,05,17,0.00
2008,12,19,05,18,0.00
2008,12,19,05,19,0.00
2008,12,19,05,20,0.00
2008,12,19,05,21,0.00
2008,12,19,05,22,0.00
2008,12,19,05,23,0.00
2008,12,19,05,24,0.00
2008,12,19,05,25,0.00
2008,12,19,05,26,0.00
2008,12,19,05,27,0.00
2008,12,19,05,28,0.00
2008,12,19,05,29,0.00
2008,12,19,05,30,0.00
2008,12,19,05,31,0.00
2008,12,19,05,32,0.00
2008,12,19,05,33,0.00
2008,12,19,05,34,0.00
2008,12,19,05,35,0.00
2008,12,19,05,36,0.00
2008,12,19,05,37,0.00
2008,12,19,05,38,0.00
2008,12,19,05,39,0.00
2008,12,19,05,40,0.00
2008,12,19,05,41,0.00
2008,12,19,05,42,0.00
2008,12,19,05,43,0.00
2008,12,19,05,44,0.00
2008,12,19,05,45,0.00
2008,12,19,05,46,0.00
2008,12,19,05,47,0.00
2008,12,19,05,48,0.00
2008,12,19,05,49,0.00
2008,12,19,05,50,0.00
2008,12,19,05,51,0.00
2008,12,19,05,52,0.00
2008,12,19,05,53,0.00
2008,12,19,05,54,0.00
2008,12,19,05,55,0.00
2008,12,19,05,56,0.00
2008,12,19,05,57,0.00
2008,12,19,05,58,0.00
2008,12,19,05,59,0.00
2008,12,19,06,00,0.00
2008,12,19,06,01,0.00
2008,12,19,06,02,0.00
2008,12,19,06,03,0.00
2008,12,19,06,04,0.00
2008,12,19,06,05,0.00
2008,12,19,06,06,0.00
2008,12,19,06,07,0.00
2008,12,19,06,08,0.00
2008,12,19,06,09,0.00
2008,12,19,06,10,0.00
2008,12,19,06,11,0.00
2008,12,19,06,12,0.00
2008,12,19,06,13,0.00
2008,12,19,06,14,0.00
2008,12,19,06,15,0.00
2008,12,19,06,16,0.00
2008,12,19,06,17,0.00
2008,12,19,06,18,0.00
2008,12,19,06,19,0.00
2008,12,19,06,20,0.00
2008,12,19,06,21,0.00
2008,12,19,06,22,0.00
2008,12,19,06,23,0.00
2008,12,19,06,24,0.00
2008,12,19,06,25,0.00
2008,12,19,06,26,0.00
2008,12,19,06,27,0.00
2008,12,19,06,28,0.00
2008,12,19,06,29,0.00
2008,12,19,06,30,0.00
2008,12,19,06,31,0.00
2008,12,19,06,32,0.00
2008,12,19,06,33,0.00
2008,12,19,06,34,0.00
2008,12,19,06,35,0.00
2008,12,19,06,36,0.00
2008,12,19,06,37,0.00
2008,12,19,06,38,0.00
2008,12,19,06,39,0.00
2008,12,19,06,40,0.00
2008,12,19,06,41,0.00
2008,12,19,06,42,0.00
2008,12,19,06,43,0.00
2008,12,19,06,44,0.00
2008,12,19,06,45,0.00
2008,12,19,06,46,0.00
2008,12,19,06,47,0.00
2008,12,19,06,48,0.00
2008,12,19,06,49,0.00
2008,12,19,06,50,0.00
2008,12,19,06,51,0.00
2008,12,19,06,52,0.00
2008,12,19,06,53,0.00
2008,12,19,06,54,0.00
2008,12,19,06,55,0.00
2008,12,19,06,56,0.00
2008,12,19,06,57,0.00
2008,12,19,06,58,0.00
2008,12,19,06,59,0.00
2008,12,19,07,00,0.00
2008,12,19,07,01,0.00
2008,12,19,07,02,0.00
2008,12,19,07,03,0.00
2008,12,19,07,04,0.00
2008,12,19,07,05,0.00
2008,12,19,07,06,0.00
2008,12,19,07,07,0.00
2008,12,19,07,08,0.00
2008,12,19,07,09,0.00
2008,12,19,07,10,0.00
2008,12,19,07,11,0.00
2008,12,19,07,12,0.00
2008,12,19,07,13,0.00
2008,12,19,07,14,0.00
2008,12,19,07,15,0.00
2008,12,19,07,16,0.00
2008,12,19,07,17,0.00
2008,12,19,07,18,0.00
2008,12,19,07,19,0.00
2008,12,19,07,20,0.00
2008,12,19,07,21,0.00
2008,12,19,07,22,0.00
2008,12,19,07,23,0.00
2008,12,19,07,24,0.00
2008,12,19,07,25,0.00
2008,12,19,07,26,0.00
2008,12,19,07,27,0.00
2008,12,19,07,28,0.00
2008,12,19,07,29,0.00
2008,12,19,07,30,0.00
2008,12,19,07,31,0.00
2008,12,19,07,32,0.00
2008,12,19,07,33,0.00
2008,12,19,07,34,0.00
2008,12,19,07,35,0.00
2008,12,19,07,36,0.00
2008,12,19,07,37,0.00
2008,12,19,07,38,0.00
2008,12,19,07,39,0.00
2008,12,19,07,40,0.00
2008,12,19,07,41,0.00
2008,12,19,07,42,0.00
2008,12,19,07,43,0.00
2008,12,19,07,44,0.00
2008,12,19,07,45,0.00
2008,12,19,07,46,0.00
2008,12,19,07,47,0.00
2008,12,19,07,48,0.00
2008,12,19,07,49,0.00
2008,12,19,07,50,0.00
2008,12,19,07,51,0.00
2008,12,19,07,52,0.00
2008,12,19,07,53,0.00
2008,12,19,07,54,0.00
2008,12,19,07,55,0.00
2008,12,19,07,56,0.00
2008,12,19,07,57,0.00
2008,12,19,07,58,0.00
2008,12,19,07,59,0.00
2008,12,19,08,00,0.00
2008,12,19,08,01,0.00
2008,12,19,08,02,0.00
2008,12,19,08,03,0.00
2008,12,19,08,04,0.00
2008,12,19,08,05,0.00
2008,12,19,08,06,0.00
2008,12,19,08,07,0.00
2008,12,19,08,08,0.00
2008,12,19,08,09,0.00
2008,12,19,08,10,0.00
2008,12,19,08,11,5.00
2008,12,19,08,12,5.00
2008,12,19,08,13,5.00
2008,12,19,08,14,5.00
2008,12,19,08,15,5.00
2008,12,19,08,16,5.00
2008,12,19,08,17,7.00
2008,12,19,08,18,7.00
2008,12,19,08,19,7.00
2008,12,19,08,20,7.00
2008,12,19,08,21,7.00
2008,12,19,08,22,9.00
2008,12,19,08,23,9.00
2008,12,19,08,24,9.00
2008,12,19,08,25,9.00
2008,12,19,08,26,9.00
2008,12,19,08,27,11.00
2008,12,19,08,28,11.00
2008,12,19,08,29,11.00
2008,12,19,08,30,11.00
2008,12,19,08,31,12.00
2008,12,19,08,32,12.00
2008,12,19,08,33,12.00
2008,12,19,08,34,12.00
2008,12,19,08,35,14.00
2008,12,19,08,36,14.00
2008,12,19,08,37,14.00
2008,12,19,08,38,14.00
2008,12,19,08,39,16.00
2008,12,19,08,40,16.00
2008,12,19,08,41,16.00
2008,12,19,08,42,18.00
2008,12,19,08,43,18.00
2008,12,19,08,44,19.00
2008,12,19,08,45,21.00
2008,12,19,08,46,25.00
2008,12,19,08,47,30.00
2008,12,19,08,48,39.00
2008,12,19,08,49,44.00
2008,12,19,08,50,42.00
2008,12,19,08,51,40.00
2008,12,19,08,52,40.00
2008,12,19,08,53,32.00
2008,12,19,08,54,30.00
2008,12,19,08,55,28.00
2008,12,19,08,56,26.00
2008,12,19,08,57,26.00
2008,12,19,08,58,33.00
2008,12,19,08,59,58.00
2008,12,19,09,00,62.00
2008,12,19,09,01,63.00
2008,12,19,09,02,63.00
2008,12,19,09,03,65.00
2008,12,19,09,04,65.00
2008,12,19,09,05,67.00
2008,12,19,09,06,69.00
2008,12,19,09,07,70.00
2008,12,19,09,08,70.00
2008,12,19,09,09,72.00
2008,12,19,09,10,72.00
2008,12,19,09,11,77.00
2008,12,19,09,12,79.00
2008,12,19,09,13,81.00
2008,12,19,09,14,83.00
2008,12,19,09,15,84.00
2008,12,19,09,16,88.00
2008,12,19,09,17,88.00
2008,12,19,09,18,90.00
2008,12,19,09,19,91.00
2008,12,19,09,20,93.00
2008,12,19,09,21,95.00
2008,12,19,09,22,97.00
2008,12,19,09,23,95.00
2008,12,19,09,24,100.00
2008,12,19,09,25,105.00
2008,12,19,09,26,111.00
2008,12,19,09,27,114.00
2008,12,19,09,28,123.00
2008,12,19,09,29,127.00
2008,12,19,09,30,128.00
2008,12,19,09,31,128.00
2008,12,19,09,32,125.00
2008,12,19,09,33,123.00
2008,12,19,09,34,128.00
2008,12,19,09,35,137.00
2008,12,19,09,36,141.00
2008,12,19,09,37,142.00
2008,12,19,09,38,142.00
2008,12,19,09,39,139.00
2008,12,19,09,40,141.00
2008,12,19,09,41,141.00
2008,12,19,09,42,144.00
2008,12,19,09,43,146.00
2008,12,19,09,44,148.00
2008,12,19,09,45,149.00
2008,12,19,09,46,153.00
2008,12,19,09,47,155.00
2008,12,19,09,48,156.00
2008,12,19,09,49,156.00
2008,12,19,09,50,158.00
2008,12,19,09,51,160.00
2008,12,19,09,52,163.00
2008,12,19,09,53,165.00
2008,12,19,09,54,167.00
2008,12,19,09,55,169.00
2008,12,19,09,56,172.00
2008,12,19,09,57,176.00
2008,12,19,09,58,178.00
2008,12,19,09,59,181.00
2008,12,19,10,00,183.00
2008,12,19,10,01,186.00
2008,12,19,10,02,190.00
2008,12,19,10,03,193.00
2008,12,19,10,04,195.00
2008,12,19,10,05,195.00
2008,12,19,10,06,195.00
2008,12,19,10,07,197.00
2008,12,19,10,08,197.00
2008,12,19,10,09,197.00
2008,12,19,10,10,195.00
2008,12,19,10,11,197.00
2008,12,19,10,12,195.00
2008,12,19,10,13,197.00
2008,12,19,10,14,199.00
2008,12,19,10,15,202.00
2008,12,19,10,16,204.00
2008,12,19,10,17,206.00
2008,12,19,10,18,206.00
2008,12,19,10,19,207.00
2008,12,19,10,20,209.00
2008,12,19,10,21,211.00
2008,12,19,10,22,211.00
2008,12,19,10,23,213.00
2008,12,19,10,24,213.00
2008,12,19,10,25,214.00
2008,12,19,10,26,218.00
2008,12,19,10,27,236.00
2008,12,19,10,28,243.00
2008,12,19,10,29,253.00
2008,12,19,10,30,260.00
2008,12,19,10,31,265.00
2008,12,19,10,32,265.00
2008,12,19,10,33,274.00
2008,12,19,10,34,276.00
2008,12,19,10,35,276.00
2008,12,19,10,36,276.00
2008,12,19,10,37,278.00
2008,12,19,10,38,278.00
2008,12,19,10,39,278.00
2008,12,19,10,40,281.00
2008,12,19,10,41,281.00
2008,12,19,10,42,281.00
2008,12,19,10,43,281.00
2008,12,19,10,44,283.00
2008,12,19,10,45,281.00
2008,12,19,10,46,283.00
2008,12,19,10,47,283.00
2008,12,19,10,48,283.00
2008,12,19,10,49,287.00
2008,12,19,10,50,287.00
2008,12,19,10,51,287.00
2008,12,19,10,52,292.00
2008,12,19,10,53,294.00
2008,12,19,10,54,290.00
2008,12,19,10,55,290.00
2008,12,19,10,56,294.00
2008,12,19,10,57,294.00
2008,12,19,10,58,294.00
2008,12,19,10,59,294.00
2008,12,19,11,00,295.00
2008,12,19,11,01,290.00
2008,12,19,11,02,299.00
2008,12,19,11,03,301.00
2008,12,19,11,04,301.00
2008,12,19,11,05,302.00
2008,12,19,11,06,302.00
2008,12,19,11,07,302.00
2008,12,19,11,08,306.00
2008,12,19,11,09,308.00
2008,12,19,11,10,309.00
2008,12,19,11,11,311.00
2008,12,19,11,12,302.00
2008,12,19,11,13,299.00
2008,12,19,11,14,304.00
2008,12,19,11,15,272.00
2008,12,19,11,16,297.00
2008,12,19,11,17,264.00
2008,12,19,11,18,301.00
2008,12,19,11,19,302.00
2008,12,19,11,20,302.00
2008,12,19,11,21,302.00
2008,12,19,11,22,306.00
2008,12,19,11,23,308.00
2008,12,19,11,24,311.00
2008,12,19,11,25,316.00
2008,12,19,11,26,306.00
2008,12,19,11,27,309.00
2008,12,19,11,28,304.00
2008,12,19,11,29,308.00
2008,12,19,11,30,306.00
2008,12,19,11,31,297.00
2008,12,19,11,32,295.00
2008,12,19,11,33,297.00
2008,12,19,11,34,297.00
2008,12,19,11,35,294.00
2008,12,19,11,36,290.00
2008,12,19,11,37,309.00
2008,12,19,11,38,306.00
2008,12,19,11,39,248.00
2008,12,19,11,40,299.00
2008,12,19,11,41,304.00
2008,12,19,11,42,308.00
2008,12,19,11,43,318.00
2008,12,19,11,44,316.00
2008,12,19,11,45,243.00
2008,12,19,11,46,299.00
2008,12,19,11,47,320.00
2008,12,19,11,48,316.00
2008,12,19,11,49,301.00
2008,12,19,11,50,295.00
2008,12,19,11,51,306.00
2008,12,19,11,52,297.00
2008,12,19,11,53,276.00
2008,12,19,11,54,276.00
2008,12,19,11,55,153.00
2008,12,19,11,56,195.00
2008,12,19,11,57,174.00
2008,12,19,11,58,114.00
2008,12,19,11,59,107.00
2008,12,19,12,00,105.00
2008,12,19,12,01,121.00
2008,12,19,12,02,121.00
2008,12,19,12,03,132.00
2008,12,19,12,04,142.00
2008,12,19,12,05,153.00
2008,12,19,12,06,153.00
2008,12,19,12,07,151.00
2008,12,19,12,08,160.00
2008,12,19,12,09,158.00
2008,12,19,12,10,171.00
2008,12,19,12,11,167.00
2008,12,19,12,12,264.00
2008,12,19,12,13,195.00
2008,12,19,12,14,162.00
2008,12,19,12,15,153.00
2008,12,19,12,16,153.00
2008,12,19,12,17,218.00
2008,12,19,12,18,141.00
2008,12,19,12,19,125.00
2008,12,19,12,20,125.00
2008,12,19,12,21,199.00
2008,12,19,12,22,148.00
2008,12,19,12,23,118.00
2008,12,19,12,24,113.00
2008,12,19,12,25,121.00
2008,12,19,12,26,132.00
2008,12,19,12,27,104.00
2008,12,19,12,28,109.00
2008,12,19,12,29,120.00
2008,12,19,12,30,141.00
2008,12,19,12,31,130.00
2008,12,19,12,32,135.00
2008,12,19,12,33,142.00
2008,12,19,12,34,181.00
2008,12,19,12,35,190.00
2008,12,19,12,36,156.00
2008,12,19,12,37,165.00
2008,12,19,12,38,163.00
2008,12,19,12,39,165.00
2008,12,19,12,40,176.00
2008,12,19,12,41,163.00
2008,12,19,12,42,192.00
2008,12,19,12,43,218.00
2008,12,19,12,44,190.00
2008,12,19,12,45,151.00
2008,12,19,12,46,149.00
2008,12,19,12,47,155.00
2008,12,19,12,48,174.00
2008,12,19,12,49,162.00
2008,12,19,12,50,156.00
2008,12,19,12,51,155.00
2008,12,19,12,52,149.00
2008,12,19,12,53,144.00
2008,12,19,12,54,142.00
2008,12,19,12,55,142.00
2008,12,19,12,56,148.00
2008,12,19,12,57,137.00
2008,12,19,12,58,137.00
2008,12,19,12,59,128.00
2008,12,19,13,00,125.00
2008,12,19,13,01,118.00
2008,12,19,13,02,120.00
2008,12,19,13,03,116.00
2008,12,19,13,04,134.00
2008,12,19,13,05,287.00
2008,12,19,13,06,294.00
2008,12,19,13,07,229.00
2008,12,19,13,08,230.00
2008,12,19,13,09,162.00
2008,12,19,13,10,179.00
2008,12,19,13,11,292.00
2008,12,19,13,12,290.00
2008,12,19,13,13,281.00
2008,12,19,13,14,214.00
2008,12,19,13,15,255.00
2008,12,19,13,16,267.00
2008,12,19,13,17,130.00
2008,12,19,13,18,125.00
2008,12,19,13,19,97.00
2008,12,19,13,20,97.00
2008,12,19,13,21,258.00
2008,12,19,13,22,214.00
2008,12,19,13,23,216.00
2008,12,19,13,24,211.00
2008,12,19,13,25,243.00
2008,12,19,13,26,243.00
2008,12,19,13,27,243.00
2008,12,19,13,28,250.00
2008,12,19,13,29,227.00
2008,12,19,13,30,248.00
2008,12,19,13,31,248.00
2008,12,19,13,32,248.00
2008,12,19,13,33,248.00
2008,12,19,13,34,250.00
2008,12,19,13,35,248.00
2008,12,19,13,36,246.00
2008,12,19,13,37,244.00
2008,12,19,13,38,243.00
2008,12,19,13,39,239.00
2008,12,19,13,40,236.00
2008,12,19,13,41,234.00
2008,12,19,13,42,232.00
2008,12,19,13,43,230.00
2008,12,19,13,44,227.00
2008,12,19,13,45,221.00
2008,12,19,13,46,220.00
2008,12,19,13,47,218.00
2008,12,19,13,48,179.00
2008,12,19,13,49,155.00
2008,12,19,13,50,181.00
2008,12,19,13,51,193.00
2008,12,19,13,52,209.00
2008,12,19,13,53,209.00
2008,12,19,13,54,207.00
2008,12,19,13,55,207.00
2008,12,19,13,56,206.00
2008,12,19,13,57,204.00
2008,12,19,13,58,200.00
2008,12,19,13,59,199.00
2008,12,19,14,00,197.00
2008,12,19,14,01,197.00
2008,12,19,14,02,195.00
2008,12,19,14,03,193.00
2008,12,19,14,05,192.00
2008,12,19,14,06,190.00
2008,12,19,14,07,188.00
2008,12,19,14,08,186.00
2008,12,19,14,09,185.00
2008,12,19,14,10,185.00
2008,12,19,14,11,183.00
2008,12,19,14,12,181.00
2008,12,19,14,13,179.00
2008,12,19,14,14,178.00
2008,12,19,14,15,176.00
2008,12,19,14,18,172.00
2008,12,19,14,19,171.00
2008,12,19,14,20,171.00
2008,12,19,14,21,169.00
2008,12,19,14,22,167.00
2008,12,19,14,23,165.00
2008,12,19,14,24,163.00
2008,12,19,14,25,162.00
2008,12,19,14,26,160.00
2008,12,19,14,27,158.00
2008,12,19,14,28,158.00
2008,12,19,14,29,156.00
2008,12,19,14,30,156.00
2008,12,19,14,31,155.00
2008,12,19,14,32,155.00
2008,12,19,14,33,153.00
2008,12,19,14,34,151.00
2008,12,19,14,35,151.00
2008,12,19,14,36,149.00
2008,12,19,14,37,148.00
2008,12,19,14,38,146.00
2008,12,19,14,39,144.00
2008,12,19,14,40,142.00
2008,12,19,14,41,141.00
2008,12,19,14,42,139.00
2008,12,19,14,43,137.00
2008,12,19,14,44,91.00
2008,12,19,14,45,100.00
2008,12,19,14,46,123.00
2008,12,19,14,47,121.00
2008,12,19,14,48,128.00
2008,12,19,14,49,127.00
2008,12,19,14,50,123.00
2008,12,19,14,51,118.00
2008,12,19,14,52,121.00
2008,12,19,14,53,111.00
2008,12,19,14,54,58.00
2008,12,19,14,55,77.00
2008,12,19,14,56,114.00
2008,12,19,14,57,113.00
2008,12,19,14,58,111.00
2008,12,19,14,59,90.00
2008,12,19,15,00,105.00
2008,12,19,15,01,105.00
2008,12,19,15,02,70.00
2008,12,19,15,03,93.00
2008,12,19,15,04,46.00
2008,12,19,15,05,47.00
2008,12,19,15,06,46.00
2008,12,19,15,07,40.00
2008,12,19,15,08,39.00
2008,12,19,15,09,37.00
2008,12,19,15,10,35.00
2008,12,19,15,11,33.00
2008,12,19,15,12,33.00
2008,12,19,15,13,33.00
2008,12,19,15,14,32.00
2008,12,19,15,15,30.00
2008,12,19,15,16,30.00
2008,12,19,15,17,30.00
2008,12,19,15,18,30.00
2008,12,19,15,19,30.00
2008,12,19,15,20,30.00
2008,12,19,15,21,30.00
2008,12,19,15,22,30.00
2008,12,19,15,23,30.00
2008,12,19,15,24,32.00
2008,12,19,15,25,32.00
2008,12,19,15,26,32.00
2008,12,19,15,27,32.00
2008,12,19,15,28,32.00
2008,12,19,15,29,32.00
2008,12,19,15,30,32.00
2008,12,19,15,31,32.00
2008,12,19,15,32,32.00
2008,12,19,15,33,32.00
2008,12,19,15,34,33.00
2008,12,19,15,35,33.00
2008,12,19,15,36,32.00
2008,12,19,15,37,32.00
2008,12,19,15,38,30.00
2008,12,19,15,39,30.00
2008,12,19,15,40,30.00
2008,12,19,15,41,28.00
2008,12,19,15,42,28.00
2008,12,19,15,43,25.00
2008,12,19,15,44,23.00
2008,12,19,15,45,23.00
2008,12,19,15,46,21.00
2008,12,19,15,47,19.00
2008,12,19,15,48,19.00
2008,12,19,15,49,18.00
2008,12,19,15,50,16.00
2008,12,19,15,51,16.00
2008,12,19,15,52,14.00
2008,12,19,15,53,14.00
2008,12,19,15,54,12.00
2008,12,19,15,55,12.00
2008,12,19,15,56,12.00
2008,12,19,15,57,11.00
2008,12,19,15,58,11.00
2008,12,19,15,59,11.00
2008,12,19,16,00,9.00
2008,12,19,16,02,9.00
2008,12,19,16,03,9.00
2008,12,19,16,04,7.00
2008,12,19,16,05,7.00
2008,12,19,16,07,7.00
2008,12,19,16,08,7.00
2008,12,19,16,09,7.00
2008,12,19,16,10,5.00
2008,12,19,16,11,5.00
2008,12,19,16,12,5.00
2008,12,19,16,13,5.00
2008,12,19,16,14,5.00
2008,12,19,16,15,5.00
2008,12,19,16,16,5.00
2008,12,19,16,17,0.00
2008,12,19,16,18,0.00
2008,12,19,16,19,0.00
2008,12,19,16,20,0.00
2008,12,19,16,21,0.00
2008,12,19,16,22,0.00
2008,12,19,16,23,0.00
2008,12,19,16,24,0.00
2008,12,19,16,25,0.00
2008,12,19,16,26,0.00
2008,12,19,16,27,0.00
2008,12,19,16,28,0.00
2008,12,19,16,29,0.00
2008,12,19,16,30,0.00
2008,12,19,16,31,0.00
2008,12,19,16,32,0.00
2008,12,19,16,33,0.00
2008,12,19,16,34,0.00
2008,12,19,16,35,0.00
2008,12,19,16,36,0.00
2008,12,19,16,37,0.00
2008,12,19,16,38,0.00
2008,12,19,16,39,0.00
2008,12,19,16,40,0.00
2008,12,19,16,41,0.00
2008,12,19,16,42,0.00
2008,12,19,16,43,0.00
2008,12,19,16,44,0.00
2008,12,19,16,45,0.00
2008,12,19,16,46,0.00
2008,12,19,16,47,0.00
2008,12,19,16,48,0.00
2008,12,19,16,49,0.00
2008,12,19,16,50,0.00
2008,12,19,16,51,0.00
2008,12,19,16,52,0.00
2008,12,19,16,53,0.00
2008,12,19,16,54,0.00
2008,12,19,16,55,0.00
2008,12,19,16,56,0.00
2008,12,19,16,57,0.00
2008,12,19,16,58,0.00
2008,12,19,16,59,0.00
2008,12,19,17,00,0.00
2008,12,19,17,01,0.00
2008,12,19,17,02,0.00
2008,12,19,17,03,0.00
2008,12,19,17,04,0.00
2008,12,19,17,05,0.00
2008,12,19,17,06,0.00
2008,12,19,17,07,0.00
2008,12,19,17,08,0.00
2008,12,19,17,09,0.00
2008,12,19,17,10,0.00
2008,12,19,17,11,0.00
2008,12,19,17,12,0.00
2008,12,19,17,13,0.00
2008,12,19,17,14,0.00
2008,12,19,17,15,0.00
2008,12,19,17,16,0.00
2008,12,19,17,17,0.00
2008,12,19,17,18,0.00
2008,12,19,17,19,0.00
2008,12,19,17,20,0.00
2008,12,19,17,21,0.00
2008,12,19,17,22,0.00
2008,12,19,17,23,0.00
2008,12,19,17,24,0.00
2008,12,19,17,25,0.00
2008,12,19,17,26,0.00
2008,12,19,17,27,0.00
2008,12,19,17,28,0.00
2008,12,19,17,29,0.00
2008,12,19,17,30,0.00
2008,12,19,17,31,0.00
2008,12,19,17,32,0.00
2008,12,19,17,33,0.00
2008,12,19,17,34,0.00
2008,12,19,17,35,0.00
2008,12,19,17,36,0.00